Voltar ao catálogo

STARLINK-3665

AtivoComunicaçõesVLEO
NORAD 52098·PAYLOAD·🇺🇸 United States

Lançado Mar 19, 2022 de Cape Canaveral Space Force Station

Loading…

Próximas Passagens (próximas 24 horas)

TLE

AtualizadoSource: CelesTrak SupGP

Época: Sep 14, 2026, 21:03 UTC

1 52098C 22029L   26257.87756944 -.00014163  00000+0 -41860-3 0  2576
2 52098  53.1582 308.3445 0001170  90.2052 223.0296 15.34387025    17

Acompanhe STARLINK-3665 em tempo real com AllMySat

Download on the App Store